[[{"header":{"parameterUnit":"m.s-1","parameterCategory":1,"la1":30.2991,"la2":30.254,"lo1":-89.0895,"lo2":-89.0444,"dy":0.0017,"dx":0.0017,"nx":28,"ny":28,"refTime":"2025-07-23T09:00:00:Z","depth":0,"parameterNumber":2,"parameterNumberName":"U-component_of_WINDS"},"data":[0,0,0,0,0,0,0,0,0,0,0,0,0,0,0,0,0,0,0,0,0,0,0,0,0,0,0,0,0,0,0,0,0,0,0,0,0,0,0,0,0,0,0,0,0,0,0,0,0,0,0,0,0,0,0,0,0,0,1.2226,1.2228,0,1.238,1.2382,1.2384,1.2423,1.2422,1.2421,1.2421,1.2578,1.2583,1.2588,0,0,0,0,0,0,0,0,0,0,0,0,0,1.1966,1.1971,1.2226,1.2228,1.223,1.238,1.2382,1.2384,1.2424,1.2422,1.2421,1.242,1.2576,1.2582,1.2589,0,0,0,0,0,0,0,0,0,0,0,0,0,1.2096,1.1972,1.2226,1.2268,1.2273,1.2379,1.2382,1.2385,1.2424,1.2422,1.2421,1.242,1.2574,1.2582,1.2589,1.2665,0,0,1.2613,1.2616,0,0,0,0,0,0,0,0,1.2088,1.2105,1.226,1.2265,1.2271,1.2381,1.2348,1.2479,1.2424,1.2367,1.2421,1.2419,1.2514,1.2526,1.2558,1.2672,1.2679,1.2613,1.2618,1.2621,1.2623,0,0,0,0,0,0,0,1.2079,1.2099,1.2287,1.2262,1.2269,1.2279,1.2296,1.2373,1.2446,1.2371,1.2375,1.2392,1.2517,1.2551,1.2562,1.2681,1.2613,1.262,1.2625,1.2628,1.2865,1.2866,0,0,0,0,0,0,1.2063,1.2091,1.2282,1.2292,1.2174,1.2285,1.2303,1.2347,1.2446,1.2459,1.2393,1.2394,1.2538,1.2553,1.2568,1.2662,1.2621,1.2628,1.2633,1.2863,1.2865,1.2867,0,0,0,0,0,0,1.2057,1.208,1.2276,1.2192,1.2218,1.2291,1.234,1.2351,1.2385,1.2462,1.2475,1.2415,1.2538,1.2557,1.264,1.2668,1.2632,1.2639,1.2861,1.2863,1.2866,1.2852,0,0,0,0,0,0,1.205,1.2077,1.2107,1.2193,1.2222,1.2346,1.2341,1.2355,1.2398,1.24,1.2486,1.2499,1.2538,1.2629,1.2648,1.2678,1.2645,1.2859,1.2862,1.2865,1.285,1.2854,1.2857,0,0,0,0,0,1.204,1.2097,1.2108,1.2131,1.2261,1.2347,1.2364,1.2409,1.24,1.2431,1.248,1.2496,1.2662,1.2637,1.2659,1.2692,1.2857,1.2861,1.2865,1.2849,1.2853,1.2856,0,0,0,0,0,0,1.2013,1.2109,1.2122,1.2209,1.227,1.2354,1.2393,1.2412,1.2477,1.2476,1.2528,1.2547,1.2626,1.2668,1.2638,1.277,1.276,1.2768,1.274,1.2745,1.2748,1.2736,1.2651,0,0,0,0,0,1.2016,1.2079,1.216,1.2228,1.2258,1.232,1.236,1.2389,1.2454,1.248,1.2535,1.2598,1.2664,1.2707,1.2772,1.2856,1.2875,1.289,1.2893,1.2895,1.2902,1.2949,1.2956,1.288,1.2879,1.2879,0,0,1.2025,1.2086,1.2122,1.2224,1.2275,1.2338,1.2342,1.2409,1.2456,1.249,1.2572,1.2614,1.2688,1.2771,1.2811,1.2808,1.2927,1.29,1.2901,1.2907,1.2954,1.2961,1.2967,1.2882,1.2882,1.2881,0,0,1.2073,1.2125,1.2188,1.2238,1.2315,1.2356,1.2371,1.2453,1.2482,1.2565,1.2592,1.2649,1.2762,1.2813,1.2854,1.2921,1.2938,1.2941,1.2958,1.3003,1.3009,1.3014,1.3038,1.3046,1.2947,1.2947,1.2947,0,1.2074,1.2171,1.2217,1.2283,1.2327,1.2361,1.2424,1.2471,1.2565,1.2594,1.2589,1.2732,1.2784,1.288,1.2896,1.2928,1.2946,1.2931,1.3004,1.301,1.3016,1.3039,1.3048,1.2947,1.2947,1.2947,1.2947,0,1.2168,1.2235,1.2276,1.2366,1.2414,1.2478,1.2534,1.2578,1.2602,1.2644,1.2728,1.2791,1.2869,1.2894,1.2919,1.2994,1.2989,1.2994,1.2985,1.3023,1.3045,1.3054,1.2947,1.2947,1.2947,1.2947,0,0,1.2203,1.2318,1.2332,1.2373,1.246,1.2512,1.2577,1.2654,1.269,1.2754,1.2809,1.2904,1.2909,1.2955,1.2986,1.3026,1.3074,1.3026,1.3028,1.3032,1.3159,1.3155,1.3164,1.3086,1.3088,1.3089,1.3153,0,1.2261,1.238,1.2423,1.252,1.2582,1.2615,1.2672,1.2731,1.2771,1.283,1.2874,1.294,1.2942,1.297,1.3011,1.3059,1.31,1.3055,1.3138,1.314,1.3118,1.3176,1.3172,1.3229,1.3162,1.3163,1.3165,0,1.2345,1.241,1.2513,1.2592,1.2619,1.267,1.2743,1.2799,1.2866,1.2893,1.2944,1.2972,1.3042,1.3028,1.3124,1.3093,1.3129,1.3158,1.3162,1.3171,1.3154,1.3186,1.3248,1.3257,1.3179,1.3178,1.3177,0,1.236,1.2472,1.2548,1.2583,1.2677,1.2711,1.2752,1.2818,1.2861,1.2926,1.2954,1.3026,1.3065,1.3119,1.3166,1.3152,1.3257,1.3248,1.3281,1.328,1.3301,1.3299,1.337,1.3325,1.3325,1.3325,1.3325,0,1.242,1.2482,1.2556,1.2603,1.2673,1.2722,1.279,1.2833,1.2891,1.2947,1.2979,1.3031,1.3089,1.3148,1.3185,1.3258,1.3276,1.3299,1.3308,1.3296,1.3293,1.332,1.3317,1.3328,1.3327,1.3327,1.3326,0,1.2448,1.25,1.2585,1.2667,1.2689,1.2737,1.2807,1.2854,1.2895,1.2965,1.2984,1.305,1.312,1.3172,1.3264,1.3289,1.3367,1.3376,1.3344,1.3349,1.3378,1.3375,1.3468,1.3483,1.3429,1.3429,1.343,0,1.2482,1.2531,1.2618,1.2657,1.2698,1.2761,1.2806,1.2856,1.2901,1.2981,1.3018,1.3091,1.3152,1.3263,1.3319,1.3389,1.34,1.3428,1.3411,1.3397,1.34,1.3396,1.3401,1.343,1.343,1.3431,1.3431,0,1.2539,1.2562,1.2625,1.2697,1.2748,1.2807,1.2867,1.2897,1.2958,1.3006,1.3079,1.3126,1.3219,1.3291,1.3367,1.3409,1.343,1.3436,1.3447,1.3435,1.3414,1.3425,1.335,1.3434,1.3433,1.3433,1.3433,1.3433,1.2571,1.2615,1.2683,1.2752,1.2802,1.2856,1.2904,1.2952,1.3013,1.3093,1.3119,1.3194,1.326,1.3364,1.3406,1.3465,1.3465,1.3481,1.3485,1.3488,1.3487,1.3405,1.3479,1.3479,1.3479,1.3479,1.3479,0,1.2628,1.2674,1.2736,1.2818,1.2872,1.2888,1.2954,1.2998,1.3063,1.3123,1.3183,1.3266,1.3336,1.3397,1.3469,1.3505,1.3516,1.3522,1.352,1.3529,1.3484,1.3467,1.3511,1.3511,1.3511,1.3511,1.3511,1.3511,1.2664,1.274,1.2771,1.2872,1.2917,1.2991,1.3027,1.3077,1.3126,1.3217,1.3275,1.3314,1.3375,1.3452,1.3516,1.3532,1.3557,1.356,1.3579,1.3536,1.3532,1.3528,1.3512,1.3566,1.3566,1.3619,1.3619,1.3619]},{"header":{"parameterUnit":"m.s-1","parameterCategory":1,"la1":30.2991,"la2":30.254,"lo1":-89.0895,"lo2":-89.0444,"dy":0.0017,"dx":0.0017,"nx":28,"ny":28,"refTime":"2025-07-23T09:00:00:Z","depth":0,"parameterNumber":3,"parameterNumberName":"V-component_of_WINDS"},"data":[0,0,0,0,0,0,0,0,0,0,0,0,0,0,0,0,0,0,0,0,0,0,0,0,0,0,0,0,0,0,0,0,0,0,0,0,0,0,0,0,0,0,0,0,0,0,0,0,0,0,0,0,0,0,0,0,0,0,1.8705,1.8703,0,1.8529,1.8527,1.8525,1.8414,1.8413,1.8412,1.8412,1.8231,1.8227,1.8223,0,0,0,0,0,0,0,0,0,0,0,0,0,1.8943,1.8939,1.8705,1.8703,1.87,1.853,1.8527,1.8525,1.8414,1.8413,1.8412,1.8411,1.8233,1.8228,1.8223,0,0,0,0,0,0,0,0,0,0,0,0,0,1.8811,1.8938,1.8705,1.8624,1.8615,1.853,1.8527,1.8524,1.8414,1.8413,1.8412,1.8411,1.8234,1.8228,1.8222,1.8203,0,0,1.8203,1.82,0,0,0,0,0,0,0,0,1.8819,1.8802,1.8638,1.863,1.862,1.8492,1.8545,1.8416,1.8414,1.849,1.8412,1.841,1.8319,1.8306,1.8275,1.8194,1.8187,1.8202,1.8198,1.8196,1.8194,0,0,0,0,0,0,0,1.8828,1.8809,1.8635,1.8636,1.8625,1.8597,1.8577,1.852,1.8412,1.8484,1.8475,1.8456,1.8313,1.8281,1.827,1.8184,1.8202,1.8197,1.8193,1.819,1.8079,1.808,0,0,0,0,0,0,1.885,1.8818,1.8641,1.863,1.8719,1.8593,1.8571,1.8534,1.8413,1.8393,1.8457,1.8451,1.8292,1.8277,1.8263,1.8232,1.8196,1.819,1.8186,1.8078,1.8079,1.808,0,0,0,0,0,0,1.8856,1.8835,1.8648,1.8721,1.8695,1.859,1.855,1.8531,1.8499,1.8392,1.8373,1.8444,1.8291,1.8272,1.8219,1.8224,1.8187,1.8181,1.8077,1.8079,1.808,1.8171,0,0,0,0,0,0,1.8863,1.8838,1.883,1.8722,1.8692,1.8607,1.855,1.8529,1.8488,1.8479,1.8375,1.8356,1.8289,1.8229,1.8212,1.8215,1.8176,1.8076,1.8078,1.8079,1.8167,1.8175,1.8182,0,0,0,0,0,1.8872,1.8862,1.883,1.8809,1.868,1.8608,1.859,1.8513,1.8489,1.848,1.8412,1.836,1.8227,1.8224,1.8205,1.8206,1.8075,1.8077,1.8079,1.8163,1.8173,1.8182,0,0,0,0,0,0,1.8973,1.8847,1.8809,1.8765,1.8698,1.8589,1.8575,1.8526,1.8464,1.8458,1.8364,1.8342,1.8298,1.8246,1.8246,1.8181,1.8145,1.8143,1.8216,1.8224,1.8232,1.8245,1.8171,0,0,0,0,0,1.899,1.8942,1.8835,1.8806,1.8774,1.8681,1.8646,1.8593,1.8519,1.849,1.8418,1.8349,1.8291,1.8255,1.8196,1.8159,1.8135,1.815,1.8158,1.8165,1.8164,1.814,1.8146,1.8086,1.8086,1.8086,0,0,1.9025,1.895,1.8926,1.8824,1.8766,1.8718,1.8657,1.861,1.8573,1.8483,1.8428,1.8373,1.8289,1.8245,1.8221,1.82,1.8175,1.8167,1.8174,1.8168,1.8143,1.8148,1.8154,1.8087,1.8087,1.8087,0,0,1.9064,1.9003,1.8972,1.8915,1.8828,1.8765,1.8759,1.8657,1.8617,1.8561,1.8492,1.8447,1.835,1.8293,1.8252,1.827,1.822,1.8254,1.8293,1.8271,1.8276,1.828,1.8285,1.8289,1.8254,1.8254,1.8254,0,1.9118,1.9043,1.8962,1.8918,1.8875,1.8792,1.876,1.8708,1.8607,1.8579,1.8558,1.8434,1.8372,1.8312,1.8317,1.8286,1.8275,1.8265,1.8282,1.8285,1.8287,1.8291,1.8294,1.8258,1.8258,1.8257,1.8257,0,1.9114,1.9064,1.9049,1.8953,1.8909,1.8871,1.8784,1.8749,1.87,1.864,1.8584,1.8507,1.8431,1.8413,1.8364,1.8346,1.8336,1.83,1.8261,1.8299,1.8301,1.8302,1.8265,1.8263,1.8262,1.8261,0,0,1.9211,1.907,1.9066,1.9022,1.892,1.8879,1.8838,1.8764,1.8735,1.8668,1.8631,1.8551,1.8517,1.847,1.8414,1.8395,1.8414,1.8361,1.8357,1.8373,1.8389,1.8417,1.842,1.8381,1.8381,1.8381,1.8396,0,1.9234,1.9155,1.9081,1.9029,1.8981,1.8902,1.8865,1.8799,1.8743,1.8694,1.8631,1.8576,1.8535,1.8506,1.8484,1.8417,1.8416,1.8415,1.8344,1.8343,1.8367,1.8421,1.845,1.8468,1.8396,1.8397,1.8397,0,1.9249,1.9186,1.913,1.9032,1.9009,1.8978,1.8904,1.8859,1.8782,1.8742,1.8691,1.8632,1.8584,1.8553,1.8486,1.8487,1.8454,1.8417,1.8415,1.8405,1.8371,1.8411,1.8471,1.8474,1.8398,1.8398,1.8397,0,1.9325,1.9225,1.9178,1.9143,1.9028,1.9008,1.896,1.8882,1.8842,1.8778,1.8751,1.8682,1.8644,1.8592,1.8517,1.8501,1.8457,1.842,1.8422,1.8424,1.8416,1.8417,1.8471,1.8397,1.8397,1.8397,1.8397,0,1.9357,1.9326,1.921,1.9182,1.9144,1.9059,1.9024,1.8968,1.89,1.8859,1.8786,1.8749,1.8652,1.8603,1.8544,1.8497,1.8481,1.8447,1.8431,1.8452,1.8457,1.8429,1.8425,1.8397,1.8397,1.8397,1.8397,0,1.9434,1.9356,1.93,1.9196,1.9169,1.9146,1.9057,1.9026,1.8966,1.8915,1.8898,1.8804,1.8742,1.8662,1.8576,1.8536,1.8496,1.8472,1.8522,1.8512,1.8519,1.852,1.8556,1.8556,1.8484,1.8485,1.8486,0,1.946,1.9434,1.9328,1.9295,1.9249,1.9197,1.9156,1.9072,1.9032,1.8943,1.8923,1.8856,1.8798,1.8705,1.8628,1.8562,1.8535,1.8552,1.8524,1.8547,1.8534,1.8536,1.8533,1.8559,1.856,1.8561,1.8562,0,1.9514,1.9476,1.942,1.9351,1.9304,1.9245,1.9183,1.9161,1.9064,1.9023,1.896,1.8915,1.8827,1.8762,1.8685,1.8635,1.8582,1.8572,1.8569,1.859,1.8619,1.8602,1.854,1.8571,1.857,1.8569,1.8569,1.8568,1.9565,1.9538,1.9459,1.9399,1.9343,1.9287,1.9253,1.9188,1.9134,1.9056,1.901,1.8949,1.8872,1.8764,1.8716,1.8667,1.8646,1.8642,1.8641,1.8641,1.8648,1.8629,1.8653,1.8652,1.8652,1.8652,1.8651,0,1.9614,1.9559,1.9505,1.942,1.9373,1.9329,1.9258,1.9221,1.9168,1.9102,1.9046,1.8974,1.891,1.8829,1.876,1.8736,1.871,1.872,1.8721,1.871,1.867,1.8679,1.8742,1.8742,1.8742,1.8742,1.8742,1.8742,1.9634,1.9585,1.9539,1.9462,1.9407,1.9347,1.931,1.9258,1.9204,1.9126,1.9073,1.9021,1.8948,1.8873,1.8813,1.8791,1.8768,1.8786,1.8757,1.8721,1.8713,1.8705,1.8713,1.8782,1.8782,1.88,1.88,1.88]}]]